Location: Unspecified
(0.0000°N, 0.0000°E)
Time: 16:21:02
(UTC+00:00)

DMSP B5D2-3 - Pass Details

Date: 13 June 2023
Orbit: 819 x 838 km, 98.7° (Epoch: 21 September)

Event Time Altitude Azimuth Distance (km) Brightness Sun altitude
Rises 04:49:47 0° 137° (SE) 3,369 8.6 -16.1°
Reaches altitude 10° 04:52:55 10° 118° (ESE) 2,429 8.1 -15.4°
Maximum altitude 04:56:25 18° 77° (ENE) 1,937 8.2 -14.6°
Drops below altitude 10° 04:59:53 10° 36° (NE) 2,414 8.6 -13.8°
Sets 05:02:58 0° 18° (NNE) 3,340 9.0 -13.1°
